DW5785 Weather Reports


Display with metric or nautical units.
time (UTC)temp
F
wind
direction
speed
MPH
gust
MPH
rain 1hr
in
rain 24hr
in
rain mn
in
humidity
%
barometer
mb
20191113092009 36 310 0.0 0.0 0.00 0.40 0.00 97 1003.8
20191113091509 36 311 0.0 0.0 0.00 0.40 0.00 97 1003.8
20191113091006 36 311 0.0 0.0 0.00 0.40 0.00 97 1003.8
20191113090512 36 313 0.0 0.0 0.00 0.40 0.00 97 1003.9
20191113090006 36 312 0.0 0.0 0.00 0.40 0.00 97 1003.8
20191113085506 36 314 0.0 2.0 0.00 0.40 0.00 97 1003.6
20191113085009 36 312 0.0 0.0 0.00 0.40 0.00 97 1003.7
20191113084506 36 243 0.0 1.0 0.00 0.40 0.00 97 1003.6
20191113084006 35 277 0.0 0.0 0.01 0.40 0.00 97 1003.6
20191113083512 36 313 0.0 0.0 0.01 0.40 0.00 97 1003.6
20191113083006 35 282 0.0 5.0 0.00 0.40 0.00 97 1003.6
20191113082506 35 298 0.0 0.0 0.00 0.40 0.00 97 1003.6
20191113082006 35 298 0.0 0.0 0.00 0.40 0.00 97 1003.6
20191113081509 35 299 0.0 0.0 0.00 0.40 0.00 97 1003.6
20191113081006 35 298 0.0 0.0 0.00 0.40 0.00 97 1003.5
20191113080506 35 299 0.0 0.0 0.00 0.40 0.00 97 1003.3
20191113080006 35 298 0.0 0.0 0.01 0.40 0.00 97 1003.2
20191113075506 35 295 0.0 0.0 0.01 0.40 0.00 97 1003.2
20191113075009 35 294 0.0 0.0 0.01 0.40 0.00 97 1003.2
20191113074506 35 332 0.0 0.0 0.01 0.40 0.00 97 1003.4
20191113074012 35 270 0.0 23.0 0.01 0.40 0.00 97 1003.3
20191113073512 35 321 6.0 17.0 0.01 0.40 0.00 97 1003.1
20191113073006 35 273 0.0 41.0 0.01 0.40 0.00 97 1003.3
20191113072506 35 343 0.0 0.0 0.01 0.40 0.00 97 1003.3
20191113072006 35 277 0.0 0.0 0.01 0.40 0.00 97 1003.1
20191113071506 35 306 0.0 0.0 0.01 0.40 0.00 97 1003.1
20191113071006 35 305 0.0 0.0 0.01 0.40 0.00 97 1002.9
20191113070506 35 293 0.0 0.0 0.01 0.40 0.00 97 1003.0
20191113070009 35 245 0.0 0.0 0.00 0.39 0.00 97 1003.1
20191113065506 35 262 0.0 0.0 0.00 0.39 0.00 97 1003.1
20191113065006 35 277 0.0 0.0 0.00 0.39 0.00 97 1003.3
20191113064506 35 277 0.0 0.0 0.00 0.40 0.00 98 1003.4
20191113064006 35 277 0.0 0.0 0.00 0.39 0.00 98 1003.4
20191113063509 35 241 0.0 1.0 0.00 0.39 0.00 97 1003.5
20191113063006 35 241 0.0 7.0 0.00 0.39 0.00 98 1003.6
20191113062506 35 240 0.0 0.0 0.00 0.39 0.00 97 1003.6
20191113062009 35 240 0.0 0.0 0.00 0.39 0.00 97 1003.4
20191113061506 35 240 0.0 0.0 0.00 0.39 0.00 97 1003.3
20191113061006 35 241 0.0 13.0 0.00 0.39 0.00 97 1003.0
20191113060506 34 239 0.0 0.0 0.00 0.39 0.00 97 1003.0
20191113060012 34 239 0.0 0.0 0.00 0.39 0.00 97 1003.1
20191113055509 34 239 0.0 0.0 0.01 0.39 0.00 97 1003.1
20191113055006 34 239 0.0 0.0 0.01 0.39 0.00 97 1003.2
20191113054509 34 239 0.0 0.0 0.01 0.39 0.00 97 1003.1
20191113054009 34 239 0.0 146.0 0.01 0.39 0.00 97 1003.0
20191113053509 34 239 0.0 0.0 0.00 0.38 0.00 97 1003.1
20191113053009 34 238 0.0 62.0 0.00 0.38 0.00 97 1003.2
20191113052506 34 251 0.0 41.0 0.00 0.39 0.00 97 1003.2
20191113052006 34 253 0.0 32.0 0.00 0.39 0.00 97 1003.2
20191113051506 34 234 0.0 69.0 0.00 0.39 0.00 97 1003.3
20191113051006 34 250 45.0 88.0 0.00 0.39 0.00 97 1003.3
20191113050506 34 250 0.0 0.0 0.00 0.39 0.00 97 1003.1
20191113050011 34 250 0.0 0.0 0.01 0.39 0.00 97 1002.9
20191113045506 34 249 0.0 0.0 0.00 0.38 0.00 97 1002.9
20191113045006 34 249 0.0 0.0 0.00 0.38 0.00 97 1003.0
20191113044506 34 249 0.0 0.0 0.00 0.38 0.00 97 1002.9
20191113044006 34 249 0.0 0.0 0.00 0.38 0.00 97 1003.0
20191113043506 34 251 0.0 0.0 0.00 0.38 0.00 97 1003.2
20191113043006 34 249 0.0 0.0 0.00 0.38 0.00 97 1003.2
20191113042506 34 249 0.0 118.0 0.00 0.38 0.00 97 1003.3
20191113042007 34 249 49.0 67.0 0.00 0.38 0.00 97 1003.2
20191113041506 34 250 24.0 79.0 0.01 0.38 0.00 97 1003.1
20191113041006 34 249 29.0 38.0 0.01 0.38 0.00 97 1003.2
20191113040512 34 249 0.0 1.0 0.01 0.38 0.00 97 1003.2
20191113040006 34 249 0.0 0.0 0.00 0.37 0.00 97 1003.4
20191113035506 34 249 0.0 0.0 0.00 0.37 0.00 97 1003.2
20191113035006 34 249 0.0 0.0 0.00 0.37 0.00 97 1003.4
20191113034512 34 250 0.0 0.0 0.00 0.37 0.00 97 1003.5
20191113034009 34 249 0.0 0.0 0.00 0.37 0.00 97 1003.5
20191113033506 34 249 0.0 0.0 0.00 0.37 0.00 97 1003.4
20191113033009 34 249 0.0 0.0 0.00 0.37 0.00 97 1003.5
20191113032509 34 249 0.0 0.0 0.01 0.37 0.00 97 1003.4
20191113032006 34 249 0.0 0.0 0.01 0.37 0.00 97 1003.6
20191113031506 34 250 0.0 0.0 0.00 0.37 0.00 97 1003.7
20191113031006 34 249 0.0 0.0 0.00 0.37 0.00 97 1003.6
20191113030509 34 249 0.0 24.0 0.00 0.37 0.00 97 1003.8
20191113030006 34 249 4.0 46.0 0.00 0.37 0.00 97 1004.0
20191113025506 34 250 26.0 47.0 0.00 0.37 0.00 97 1004.1
20191113025006 34 249 18.0 61.0 0.00 0.37 0.00 97 1004.2
20191113024506 34 249 0.0 0.0 0.00 0.37 0.00 97 1004.1
20191113024006 34 249 0.0 0.0 0.00 0.37 0.00 97 1004.0
20191113023506 34 249 0.0 0.0 0.01 0.37 0.00 97 1004.0
20191113023006 34 249 0.0 0.0 0.01 0.37 0.00 97 1004.1
20191113022512 34 249 0.0 0.0 0.00 0.36 0.00 97 1004.2
20191113022006 34 249 0.0 0.0 0.00 0.36 0.00 97 1004.2
20191113021506 34 250 0.0 0.0 0.00 0.36 0.00 97 1004.4
20191113021006 34 249 0.0 0.0 0.00 0.36 0.00 97 1004.0
20191113020506 34 249 0.0 0.0 0.00 0.36 0.00 97 1003.9
20191113020006 33 249 0.0 0.0 0.00 0.36 0.00 97 1004.1
20191113015506 33 249 0.0 0.0 0.01 0.36 0.00 97 1003.9
20191113015009 33 249 0.0 0.0 0.01 0.36 0.00 97 1004.3
20191113014509 33 249 0.0 0.0 0.01 0.36 0.00 97 1004.6
20191113014006 33 249 0.0 0.0 0.01 0.36 0.00 97 1004.5
20191113013509 33 249 0.0 0.0 0.01 0.35 0.00 97 1004.7
20191113013009 33 249 0.0 0.0 0.01 0.35 0.00 97 1004.7
20191113012506 33 249 0.0 0.0 0.01 0.35 0.00 97 1004.7
20191113012006 34 249 0.0 21.0 0.01 0.35 0.00 97 1004.8
20191113011506 33 249 8.0 30.0 0.01 0.35 0.00 97 1005.1
20191113011006 33 249 3.0 21.0 0.01 0.35 0.00 97 1005.0
20191113010509 33 249 0.0 10.0 0.01 0.35 0.00 97 1005.0
20191113010009 34 249 5.0 16.0 0.02 0.35 0.00 97 1005.2
20191113005506 34 249 0.0 0.0 0.01 0.34 0.00 97 1005.0
20191113005006 33 249 0.0 0.0 0.01 0.34 0.00 97 1005.0
20191113004506 33 249 0.0 15.0 0.01 0.34 0.00 97 1005.2
20191113004006 33 249 0.0 15.0 0.01 0.34 0.00 97 1005.0
20191113003509 33 249 3.0 4.0 0.00 0.33 0.00 97 1005.2
20191113003006 33 249 2.0 6.0 0.01 0.33 0.00 97 1005.2
20191113002509 33 249 2.0 5.0 0.01 0.33 0.00 97 1005.3
20191113002006 33 249 0.0 0.0 0.01 0.33 0.00 97 1005.2
20191113001509 33 249 0.0 0.0 0.01 0.33 0.00 97 1005.3
20191113001012 33 249 0.0 0.0 0.01 0.33 0.00 97 1005.3
20191113000512 33 249 0.0 0.0 0.01 0.33 0.00 97 1005.2
20191113000006 33 250 0.0 0.0 0.00 0.33 0.00 97 1005.2
20191112235506 33 249 0.0 4.0 0.00 0.33 0.00 96 1005.3
20191112235009 33 250 3.0 4.0 0.00 0.33 0.00 97 1005.3
20191112234506 33 249 3.0 4.0 0.00 0.33 0.00 96 1005.5
20191112234006 33 250 3.0 5.0 0.00 0.33 0.00 96 1005.9
20191112233506 33 251 0.0 0.0 0.01 0.33 0.00 96 1005.6
20191112233009 33 249 0.0 0.0 0.00 0.32 0.00 96 1005.6
20191112232506 33 250 0.0 0.0 0.00 0.32 0.00 96 1005.3
20191112232007 33 250 0.0 0.0 0.00 0.32 0.00 96 1005.5
20191112231506 33 250 0.0 0.0 0.01 0.32 0.00 96 1005.3
20191112231009 33 250 0.0 0.0 0.01 0.32 0.00 96 1005.4
20191112230506 33 249 0.0 0.0 0.01 0.32 0.00 96 1005.5
20191112230006 33 250 0.0 0.0 0.02 0.32 0.00 96 1005.6
20191112225509 33 250 0.0 0.0 0.02 0.32 0.00 96 1005.4
20191112225006 33 250 0.0 0.0 0.02 0.32 0.00 96 1005.3
20191112224509 33 250 0.0 0.0 0.03 0.32 0.00 96 1005.1
20191112224006 33 250 0.0 0.0 0.03 0.32 0.00 96 1005.3
20191112223509 33 250 0.0 0.0 0.03 0.31 0.00 96 1005.4
20191112223006 33 249 0.0 0.0 0.03 0.31 0.00 96 1005.5
20191112222509 33 250 0.0 0.0 0.03 0.31 0.00 96 1005.7
20191112222006 33 250 0.0 0.0 0.04 0.31 0.00 96 1006.0
20191112221506 33 250 0.0 0.0 0.04 0.30 0.00 96 1006.0
20191112221006 33 250 0.0 0.0 0.05 0.30 0.00 96 1006.4
20191112220506 33 250 0.0 0.0 0.06 0.30 0.00 96 1006.4
20191112220006 33 250 0.0 0.0 0.05 0.29 0.00 96 1006.5
20191112215506 33 249 0.0 0.0 0.05 0.29 0.00 96 1006.6
20191112215009 33 249 0.0 0.0 0.06 0.29 0.00 96 1006.7
20191112214506 33 250 0.0 0.0 0.05 0.29 0.00 96 1006.9
20191112214006 33 251 0.0 3.0 0.05 0.29 0.00 96 1006.6
20191112213512 33 250 2.0 4.0 0.04 0.28 0.00 96 1006.4
20191112213009 33 252 3.0 5.0 0.04 0.28 0.00 96 1006.2
20191112212506 33 253 0.0 5.0 0.03 0.27 0.00 96 1006.0
20191112212006 33 248 3.0 4.0 0.03 0.26 0.00 96 1006.2
20191112211506 33 248 0.0 0.0 0.03 0.25 0.00 95 1006.2
20191112211006 33 203 0.0 1.0 0.03 0.25 0.00 95 1006.4
20191112210506 33 237 3.0 4.0 0.03 0.24 0.00 95 1006.9
20191112210006 33 233 0.0 0.0 0.03 0.24 0.00 95 1007.0
20191112205506 33 226 0.0 0.0 0.04 0.24 0.00 95 1007.1
20191112205006 33 208 0.0 0.0 0.04 0.23 0.00 95 1007.1
20191112204506 33 201 0.0 0.0 0.05 0.23 0.00 95 1007.3
20191112204009 33 197 0.0 0.0 0.06 0.23 0.00 95 1007.4
20191112203506 33 209 0.0 4.0 0.07 0.23 0.00 95 1007.4
20191112203006 34 209 3.0 5.0 0.07 0.23 0.00 95 1007.5
20191112202509 34 230 1.0 6.0 0.08 0.23 0.00 95 1007.5
20191112202009 34 201 5.0 6.0 0.08 0.22 0.00 95 1007.4
20191112201506 34 199 3.0 5.0 0.09 0.22 0.00 95 1007.1
20191112201006 35 222 0.0 4.0 0.09 0.22 0.00 95 1007.0
20191112200509 35 194 3.0 4.0 0.09 0.21 0.00 95 1006.8
20191112200006 35 193 0.0 4.0 0.09 0.20 0.00 95 1006.7
20191112195506 35 199 0.0 4.0 0.08 0.19 0.00 95 1006.7
20191112195006 36 212 3.0 4.0 0.08 0.18 0.00 95 1006.7
20191112194506 36 219 0.0 0.0 0.08 0.18 0.00 95 1006.5
20191112194006 36 220 0.0 4.0 0.07 0.17 0.00 95 1006.6
20191112193506 36 208 4.0 4.0 0.07 0.16 0.00 95 1006.6
20191112193006 37 205 0.0 0.0 0.07 0.15 0.00 95 1006.2
20191112192509 37 206 0.0 0.0 0.06 0.14 0.00 95 1006.3
20191112192006 37 205 0.0 4.0 0.05 0.14 0.00 95 1006.4
20191112191506 37 182 1.0 1.0 0.05 0.13 0.00 95 1006.5
20191112191012 37 181 0.0 0.0 0.04 0.12 0.00 95 1006.5
20191112190506 37 181 0.0 0.0 0.03 0.11 0.00 95 1006.8
20191112190006 37 183 0.0 4.0 0.03 0.11 0.00 95 1006.9
20191112185506 38 182 0.0 0.0 0.03 0.11 0.00 95 1006.9
20191112185006 37 170 0.0 4.0 0.03 0.10 0.00 95 1007.0
20191112184509 38 174 2.0 5.0 0.02 0.09 0.00 95 1006.9
20191112184009 38 170 0.0 5.0 0.03 0.09 0.00 95 1007.0
20191112183506 38 170 0.0 4.0 0.02 0.08 0.00 95 1007.1
20191112183006 38 202 0.0 4.0 0.02 0.08 0.00 95 1007.3
20191112182512 38 164 2.0 5.0 0.02 0.08 0.00 95 1007.2
20191112182009 38 155 2.0 2.0 0.02 0.08 0.00 94 1007.2
20191112181506 38 170 0.0 5.0 0.02 0.07 0.00 94 1007.3
20191112181006 39 154 1.0 6.0 0.02 0.07 0.00 94 1007.3
20191112180506 39 181 2.0 2.0 0.02 0.07 0.00 94 1007.3
20191112180006 38 189 0.0 0.0 0.01 0.07 0.00 94 1007.2
20191112175506 39 189 0.0 0.0 0.02 0.07 0.00 94 1007.2
20191112175006 39 190 0.0 0.0 0.02 0.07 0.00 94 1007.2
20191112174506 39 189 0.0 0.0 0.02 0.07 0.00 94 1007.3
20191112174006 39 189 0.0 3.0 0.01 0.06 0.00 94 1007.4
20191112173506 39 190 0.0 0.0 0.02 0.06 0.00 94 1007.5
20191112173009 39 190 0.0 0.0 0.02 0.06 0.00 94 1007.5
20191112172506 39 190 0.0 3.0 0.02 0.06 0.00 94 1007.6
20191112172006 39 190 2.0 6.0 0.02 0.06 0.00 94 1007.7
20191112171506 39 190 3.0 9.0 0.01 0.05 0.00 94 1007.8
20191112171006 39 190 0.0 0.0 0.01 0.05 0.00 94 1007.8
20191112170506 39 190 0.0 0.0 0.02 0.05 0.00 94 1007.8
20191112170009 39 190 0.0 0.0 0.02 0.05 0.00 94 1007.9
20191112165512 39 190 0.0 0.0 0.01 0.04 0.00 94 1007.7
20191112165006 39 190 0.0 0.0 0.01 0.04 0.00 94 1007.7
20191112164506 39 189 0.0 0.0 0.01 0.04 0.00 94 1007.7
20191112164006 39 189 0.0 0.0 0.01 0.04 0.00 94 1007.8
20191112163506 39 190 0.0 0.0 0.00 0.03 0.00 94 1007.7
20191112163006 39 190 0.0 0.0 0.00 0.03 0.00 94 1007.6
20191112162509 40 189 0.0 0.0 0.00 0.03 0.00 94 1007.7
20191112162006 40 190 0.0 0.0 0.01 0.03 0.00 94 1007.8
20191112161506 40 190 0.0 0.0 0.01 0.03 0.00 94 1008.0
20191112161012 40 190 0.0 0.0 0.01 0.03 0.00 94 1008.0
20191112160509 40 189 0.0 0.0 0.00 0.03 0.00 94 1008.0
20191112160009 39 189 0.0 0.0 0.00 0.03 0.00 94 1008.0
20191112155506 40 189 0.0 0.0 0.00 0.03 0.00 94 1008.0
20191112155013 40 190 0.0 0.0 0.00 0.03 0.00 94 1008.1
20191112154506 40 189 0.0 0.0 0.00 0.03 0.00 94 1008.1
20191112154009 40 189 0.0 0.0 0.00 0.03 0.00 94 1008.1
20191112153506 40 189 0.0 0.0 0.00 0.03 0.00 94 1008.3
20191112153009 40 190 0.0 0.0 0.00 0.03 0.00 94 1008.2
20191112152506 40 189 0.0 0.0 0.00 0.03 0.00 94 1008.2
20191112152009 40 190 0.0 0.0 0.00 0.02 0.00 93 1008.0
20191112151506 40 189 0.0 0.0 0.00 0.02 0.00 93 1008.0
20191112151009 40 189 0.0 4.0 0.00 0.02 0.00 93 1007.9
20191112150506 40 189 4.0 7.0 0.00 0.02 0.00 93 1007.8
20191112150006 40 190 1.0 7.0 0.00 0.02 0.00 93 1007.7
20191112145506 40 191 2.0 3.0 0.00 0.02 0.00 93 1007.8
20191112145006 40 189 0.0 0.0 0.00 0.02 0.00 93 1007.9
20191112144509 40 189 0.0 0.0 0.00 0.02 0.00 93 1007.9
20191112144006 40 189 0.0 21.0 0.00 0.02 0.00 93 1008.0
20191112143506 40 189 3.0 4.0 0.00 0.02 0.00 93 1008.1
20191112143006 39 189 0.0 3.0 0.00 0.02 0.00 94 1008.1
20191112142506 40 190 2.0 4.0 0.00 0.02 0.00 94 1008.3
20191112142009 40 189 3.0 4.0 0.00 0.02 0.00 94 1008.2
20191112141506 40 190 0.0 0.0 0.00 0.02 0.00 94 1008.1
20191112141009 40 190 0.0 3.0 0.00 0.02 0.00 94 1008.1
20191112140509 40 189 2.0 7.0 0.00 0.02 0.00 94 1008.1
20191112140009 40 193 4.0 5.0 0.00 0.02 0.00 94 1008.0
20191112135506 40 194 1.0 3.0 0.00 0.02 0.00 94 1008.1
20191112135006 40 142 0.0 4.0 0.00 0.02 0.00 94 1008.0
20191112134506 40 143 0.0 0.0 0.00 0.02 0.00 94 1008.2
20191112134006 40 142 0.0 0.0 0.00 0.02 0.00 94 1008.3
20191112133506 40 143 0.0 0.0 0.00 0.02 0.00 94 1008.4
20191112133006 40 142 0.0 0.0 0.00 0.02 0.00 94 1008.4
20191112132506 40 143 0.0 4.0 0.00 0.02 0.00 94 1008.6
20191112132006 40 142 2.0 2.0 0.00 0.02 0.00 94 1008.6
20191112131509 40 177 0.0 0.0 0.00 0.02 0.00 94 1008.7
20191112131006 40 177 0.0 3.0 0.00 0.02 0.00 94 1008.7
20191112130509 39 178 0.0 5.0 0.00 0.02 0.00 94 1008.7
20191112130009 39 184 0.0 0.0 0.00 0.02 0.00 94 1008.6
20191112125506 39 185 0.0 4.0 0.00 0.02 0.00 94 1008.6
20191112125006 39 172 0.0 4.0 0.00 0.02 0.00 94 1008.6
20191112124506 39 156 3.0 4.0 0.00 0.02 0.00 94 1008.7
20191112124006 39 167 3.0 6.0 0.00 0.02 0.00 94 1008.8
20191112123509 39 174 4.0 4.0 0.00 0.02 0.00 94 1008.7
20191112123009 39 195 4.0 6.0 0.00 0.02 0.00 94 1008.7
20191112122506 39 182 5.0 5.0 0.00 0.02 0.00 95 1008.6
20191112122006 39 206 2.0 6.0 0.00 0.02 0.00 95 1008.6
20191112121509 39 176 3.0 4.0 0.00 0.02 0.00 95 1008.6
20191112121006 39 198 0.0 5.0 0.00 0.02 0.00 95 1008.6
20191112120506 39 198 0.0 6.0 0.00 0.02 0.00 95 1008.6
20191112120006 39 199 3.0 4.0 0.00 0.02 0.00 95 1008.4
20191112115506 39 199 0.0 6.0 0.00 0.02 0.00 95 1008.3
20191112115006 39 200 2.0 4.0 0.00 0.02 0.00 95 1008.4
20191112114506 39 203 0.0 5.0 0.00 0.02 0.00 95 1008.4
20191112114009 39 218 0.0 4.0 0.00 0.02 0.00 95 1008.5
20191112113506 39 175 0.0 0.0 0.00 0.02 0.00 95 1008.4
20191112113006 39 175 0.0 4.0 0.00 0.02 0.00 95 1008.4
20191112112509 39 192 0.0 0.0 0.00 0.02 0.00 95 1008.5
20191112112006 39 213 0.0 4.0 0.00 0.02 0.00 95 1008.7
20191112111509 38 185 4.0 5.0 0.00 0.02 0.00 95 1008.7
20191112111006 38 206 1.0 10.0 0.00 0.02 0.00 95 1008.9
20191112110509 39 210 4.0 11.0 0.00 0.02 0.00 95 1009.0
20191112110006 39 198 4.0 8.0 0.00 0.02 0.00 95 1009.0
20191112105506 38 179 4.0 6.0 0.00 0.02 0.00 95 1009.1
20191112105009 38 183 3.0 8.0 0.00 0.02 0.00 96 1009.2
20191112104506 39 180 4.0 8.0 0.00 0.02 0.00 96 1009.2
20191112104012 39 199 5.0 7.0 0.00 0.02 0.00 96 1009.3
20191112103506 39 186 3.0 12.0 0.00 0.02 0.00 96 1009.4
20191112103006 39 179 0.0 7.0 0.00 0.02 0.00 96 1009.4
20191112102509 38 206 6.0 9.0 0.00 0.02 0.00 96 1009.4
20191112102006 38 173 0.0 0.0 0.00 0.02 0.00 96 1009.5
20191112101506 38 173 0.0 0.0 0.00 0.02 0.00 96 1009.7
20191112101012 38 172 0.0 8.0 0.00 0.02 0.00 96 1009.9
20191112100506 38 173 5.0 16.0 0.00 0.02 0.00 96 1009.9
20191112100006 38 193 0.0 8.0 0.00 0.02 0.00 96 1009.9
20191112095506 38 178 5.0 11.0 0.00 0.02 0.00 96 1009.9
20191112095006 38 177 0.0 11.0 0.00 0.02 0.00 96 1009.9
20191112094512 38 205 3.0 13.0 0.00 0.02 0.00 96 1009.8
20191112094006 38 191 2.0 8.0 0.00 0.02 0.00 96 1009.9
20191112093506 38 140 3.0 6.0 0.00 0.02 0.00 96 1010.0
20191112093006 38 194 3.0 6.0 0.00 0.02 0.00 96 1010.1
20191112092506 38 157 2.0 7.0 0.00 0.02 0.00 96 1010.2